Location: Penton
(34.8659°N, 90.2798°W)
Time: 03:43:52
(UTC+00:00)

Envisat - Visible Passes

Search period start: 08 October 2024 00:00
Search period end: 18 October 2024 00:00
Orbit: 762 x 764 km, 98.3° (Epoch: 07 October)

Date Brightness Start Highest point End Pass type
(mag) Time Alt. Az. Time Alt. Az. Time Alt. Az.
08 Oct 5.1 09:42:03 10° N 09:43:02 15° N 09:43:02 15° N visible
09 Oct 5.5 09:04:19 10° NNE 09:04:58 14° NNE 09:04:58 14° NNE visible
10 Oct 5.2 10:06:37 10° NNW 10:07:03 12° NNW 10:07:03 12° NNW visible
11 Oct 5.4 09:28:24 10° N 09:29:00 13° N 09:29:00 13° N visible
12 Oct 5.8 08:50:54 10° NNE 08:50:57 10° NNE 08:50:57 10° NNE visible
13 Oct 5.4 09:52:46 10° N 09:53:01 11° N 09:53:01 11° N visible
14 Oct 5.6 09:14:50 10° N 09:14:57 11° N 09:14:57 11° N visible
